STARLINK-11201, 60113

Orbit data source: Space-Track

STARLINK-11201, 60113 is a payload satellite owned by SpaceX/Seattle (US) in LEO that was launched on Mon, 24 Jun 2024 UTC via an FALCON 9 launch vehicle from the Air Force Western Test Range (AFWTR). Payload-class satellites include a variety of spacecraft equipped with specific instruments for various scientific and technological missions. These include communications satellites like Starlink; space stations such as the ISS; scientific satellites like the Hubble; Earth observation satellites from companies like Planet Labs, Umbra, and HawkEye 360; GPS; miniature CubeSats for education and research; and military/defense satellites.

Loading next visibility...
Identifier
60113, 2024-118A
Orbit
LEO
Last TLE update
14 hours ago
Origin
Manufacturer
SpaceX/Seattle
Mission
Operational spacecraft
Bus & Motor
STARLINK V2M, Unknown motor
Mass
730 kg wet, ~700 kg dry
Launch date (UTC)
2024-06-24 (1 year ago)
Launch vehicle
FALCON 9
Launch site
Air Force Western Test Range (AFWTR)
Object type
Payload
Rocket body
Debris
Shape & HBR
Unknown
Radar Cross Section
Large (>1 m²)

Expand to show TLE details & history

TLE from 14 hours ago
0 STARLINK-11201
1 60113U 24118A   25181.84317562 -.00000594  00000-0 -50802-7 0  9992
2 60113  53.1590  23.0932 0000886  81.5574 278.5544 15.69714652 58438
Epoch: 2025-06-30T20:14Z
TLE epoch observation values (Epoch: 2025-06-30T20:14:10.373Z)
Latitude
-0.00005°
Longitude
160.40277°
Altitude
360.54 km
Speed
7.694 km/s
True Right ascension
01h 32m 22s
True Declination
0° 00' 00"
Sunlit
Object was in daylight at epoch
Visualization orbit readout
Latitude
26.30664°
Longitude
-44.1621°
Altitude
360.598 km
Speed
7.697 km/s
Apparent Right ascension
11h 09m 51s
Apparent Declination
-5° 52' 55"
Sunlit
Object is in daylight
Visualization observer readout
Local Sidereal Time
22:15:04
Azimuth
336.494° NNW
Elevation
-53.805°
Doppler factor
1
Orbital elements
Apogee altitude
360.571 km
Perigee altitude
359.377 km
Semi-major axis
6,738.111 km
Eccentricity
0.00009
Inclination
53.159°
RAAN
23.0932°
Arg. of periapsis
81.5574°
True anomaly
Unknown
Mean anomaly
278.5544°
Eccentric anomaly
Unknown
Mean motion
3.92406 °/min
Orbital period
91.74 mins
BSTAR
-5.0802e-8
Loading maneuver chart data...
Loading SW <> Apogee altitude chart data...
Loading historical data...
Loading historical data...
Loading historical data...
Loading historical data...
Loading historical data...
Loading historical data...
Loading historical data...

STARLINK-11201 Visibility forecast

Observer location: undefined°, undefined°

Span
Click to sort rows by Start time (UTC) header in descending order
Start Az.
Max El. time (UTC)
Max El. Az.
Max El.
End time (UTC)
End Az.
5 mins2025-07-01 16:17:35.803Z237.22° WSW2025-07-01 16:19:35.803Z271.567° WNW41.595°2025-07-01 16:22:35.803Z45.736° ENE
|